[[{"header":{"parameterUnit":"m.s-1","parameterCategory":1,"la1":30.2991,"la2":30.254,"lo1":-89.0895,"lo2":-89.0444,"dx":0.0017,"dy":0.0017,"nx":28,"ny":28,"refTime":"2023-01-22T03:00:00:Z","depth":0,"parameterNumber":2,"parameterNumberName":"U-component_of_WINDS"},"data":[0,0,0,0,0,0,0,0,0,0,0,0,0,0,0,0,0,0,0,0,0,0,0,0,0,0,0,0,0,0,0,0,0,0,0,0,0,0,0,0,0,0,0,0,0,0,0,0,0,0,0,0,0,0,0,0,0,0,4.6021,4.6022,0,4.6124,4.6125,4.6127,4.6091,4.6089,4.6087,4.6085,4.6191,4.6195,4.62,0,0,0,0,0,0,0,0,0,0,0,0,0,4.5794,4.5799,4.6021,4.6022,4.6023,4.6124,4.6125,4.6127,4.6092,4.6089,4.6086,4.6084,4.6189,4.6195,4.6201,0,0,0,0,0,0,0,0,0,0,0,0,0,4.5895,4.58,4.602,4.6018,4.6019,4.6124,4.6125,4.6127,4.6092,4.6089,4.6085,4.6082,4.6187,4.6194,4.6202,4.6315,0,0,4.6224,4.6227,0,0,0,0,0,0,0,0,4.5889,4.5903,4.6017,4.6018,4.6019,4.6091,4.6084,4.619,4.6093,4.6064,4.6085,4.6081,4.616,4.617,4.6197,4.632,4.6325,4.6225,4.6229,4.6233,4.6235,0,0,0,0,0,0,0,4.5882,4.5898,4.6062,4.6019,4.602,4.6012,4.6023,4.6104,4.613,4.6067,4.6064,4.6077,4.616,4.619,4.6199,4.6326,4.6225,4.6231,4.6236,4.6239,4.6551,4.6554,0,0,0,0,0,0,4.5874,4.5893,4.6058,4.6065,4.5944,4.6019,4.6031,4.6072,4.6129,4.6135,4.608,4.6075,4.6179,4.619,4.6202,4.6341,4.6232,4.6239,4.6244,4.6547,4.6552,4.6556,0,0,0,0,0,0,4.587,4.5889,4.6054,4.5978,4.5999,4.6026,4.6073,4.6076,4.6105,4.6139,4.6144,4.6105,4.6176,4.6192,4.6288,4.6344,4.6243,4.6249,4.6542,4.6548,4.6554,4.6618,0,0,0,0,0,0,4.5863,4.5888,4.5931,4.5979,4.6003,4.6138,4.6076,4.608,4.6118,4.6112,4.6164,4.6169,4.6175,4.6277,4.6295,4.6352,4.6255,4.6538,4.6545,4.6552,4.6611,4.6625,4.6637,0,0,0,0,0,4.5855,4.5944,4.5933,4.5954,4.6057,4.6141,4.6154,4.6159,4.6122,4.6166,4.6189,4.6167,4.6335,4.6287,4.6307,4.6368,4.6534,4.6543,4.6551,4.6605,4.6622,4.6637,0,0,0,0,0,0,4.5902,4.5951,4.5939,4.6046,4.609,4.6135,4.619,4.6177,4.6232,4.6225,4.6228,4.624,4.6339,4.6363,4.6309,4.6482,4.6429,4.6442,4.6463,4.648,4.6493,4.6485,4.6261,0,0,0,0,0,4.5924,4.5988,4.6028,4.6119,4.6141,4.6162,4.6199,4.6199,4.6244,4.6262,4.6292,4.6337,4.6399,4.6441,4.65,4.6614,4.6626,4.6665,4.6679,4.6689,4.6701,4.6765,4.6783,4.6584,4.6584,4.6584,0,0,4.5972,4.6007,4.6047,4.6129,4.6163,4.6229,4.6178,4.625,4.63,4.6273,4.6366,4.639,4.644,4.6546,4.6594,4.6568,4.6759,4.67,4.6709,4.6714,4.6776,4.6794,4.6811,4.659,4.6589,4.6588,0,0,4.6093,4.6125,4.6205,4.6241,4.6292,4.6306,4.6326,4.6373,4.6388,4.6481,4.6463,4.6523,4.663,4.6668,4.67,4.6838,4.6821,4.6857,4.6926,4.6988,4.7004,4.7018,4.7069,4.7086,4.6868,4.6868,4.6869,0,4.6146,4.6245,4.6248,4.6323,4.636,4.634,4.6422,4.6456,4.6524,4.6551,4.6522,4.6658,4.669,4.6805,4.6839,4.6866,4.6889,4.6851,4.7002,4.7016,4.7029,4.7077,4.7096,4.6873,4.6872,4.6872,4.6871,0,4.6308,4.6378,4.6436,4.6504,4.6548,4.6626,4.6641,4.6686,4.6682,4.6699,4.6796,4.6834,4.6902,4.6929,4.6926,4.7045,4.7028,4.7,4.6947,4.7052,4.7097,4.7116,4.6879,4.6877,4.6876,4.6875,0,0,4.6461,4.653,4.6552,4.6583,4.664,4.6694,4.6771,4.6838,4.6876,4.6925,4.6991,4.7083,4.7059,4.7096,4.7097,4.7152,4.726,4.7118,4.7119,4.7144,4.7395,4.7417,4.7438,4.7249,4.7253,4.7256,4.7392,0,4.6588,4.6724,4.673,4.6854,4.6919,4.6901,4.6969,4.7012,4.703,4.7088,4.7108,4.7175,4.7136,4.7159,4.7212,4.7236,4.7311,4.7226,4.7312,4.7315,4.7301,4.7461,4.7484,4.761,4.7409,4.7412,4.7414,0,4.6754,4.6808,4.6939,4.6988,4.7016,4.7076,4.7139,4.7194,4.7243,4.7252,4.7295,4.7289,4.737,4.7314,4.7426,4.7368,4.7403,4.742,4.7425,4.7434,4.7372,4.7476,4.765,4.767,4.7442,4.744,4.7438,0,4.6854,4.696,4.7053,4.708,4.7138,4.7182,4.7208,4.7253,4.7294,4.7348,4.7375,4.7438,4.7473,4.7523,4.7534,4.7492,4.7647,4.7591,4.7658,4.7658,4.7692,4.7689,4.7876,4.7713,4.7712,4.7712,4.7712,0,4.6996,4.7077,4.7099,4.7156,4.7247,4.7253,4.7343,4.7367,4.7407,4.7469,4.7457,4.7516,4.7527,4.7588,4.7597,4.769,4.7705,4.7716,4.7718,4.7718,4.7717,4.7742,4.7734,4.7717,4.7716,4.7715,4.7714,0,4.7124,4.7141,4.7241,4.7289,4.7303,4.7368,4.7409,4.7465,4.7482,4.756,4.7579,4.7607,4.7678,4.7695,4.7779,4.7786,4.7896,4.7888,4.7879,4.7879,4.7945,4.794,4.8155,4.8184,4.8001,4.8003,4.8004,0,4.7214,4.7276,4.7331,4.7372,4.74,4.7466,4.7507,4.7516,4.756,4.762,4.7669,4.7739,4.7796,4.7911,4.7939,4.8004,4.7999,4.807,4.8009,4.8008,4.8002,4.7999,4.8006,4.8082,4.8084,4.8086,4.8087,0,4.7372,4.7378,4.7438,4.7502,4.7552,4.7602,4.765,4.7684,4.77,4.775,4.7823,4.7867,4.7954,4.8025,4.8091,4.8118,4.8107,4.8106,4.8125,4.8126,4.8119,4.8126,4.7913,4.8101,4.81,4.8099,4.8098,4.8097,4.7485,4.754,4.7588,4.7655,4.7693,4.7738,4.7793,4.7817,4.7878,4.795,4.7952,4.8032,4.808,4.8167,4.8199,4.8263,4.8241,4.8268,4.8276,4.8283,4.8289,4.8108,4.8275,4.8274,4.8274,4.8274,4.8273,0,4.7644,4.7674,4.7736,4.7804,4.7858,4.7841,4.7894,4.794,4.8011,4.8056,4.8113,4.8198,4.8267,4.83,4.8368,4.8413,4.8409,4.8431,4.8428,4.8435,4.8304,4.8281,4.8433,4.8433,4.8433,4.8433,4.8433,4.8433,4.7734,4.7826,4.7838,4.795,4.7979,4.8058,4.809,4.8132,4.8169,4.8264,4.8321,4.8342,4.8384,4.8455,4.8518,4.8526,4.8553,4.8577,4.8583,4.846,4.8444,4.8429,4.8407,4.8583,4.8583,4.8709,4.871,4.8711]},{"header":{"parameterUnit":"m.s-1","parameterCategory":1,"la1":30.2991,"la2":30.254,"lo1":-89.0895,"lo2":-89.0444,"dx":0.0017,"dy":0.0017,"nx":28,"ny":28,"refTime":"2023-01-22T03:00:00:Z","depth":0,"parameterNumber":3,"parameterNumberName":"V-component_of_WINDS"},"data":[0,0,0,0,0,0,0,0,0,0,0,0,0,0,0,0,0,0,0,0,0,0,0,0,0,0,0,0,0,0,0,0,0,0,0,0,0,0,0,0,0,0,0,0,0,0,0,0,0,0,0,0,0,0,0,0,0,0,-2.8331,-2.8332,0,-2.841,-2.8411,-2.8412,-2.8417,-2.8416,-2.8415,-2.8414,-2.8492,-2.8494,-2.8497,0,0,0,0,0,0,0,0,0,0,0,0,0,-2.8184,-2.8186,-2.8331,-2.8332,-2.8333,-2.841,-2.8411,-2.8412,-2.8417,-2.8416,-2.8415,-2.8414,-2.8491,-2.8494,-2.8498,0,0,0,0,0,0,0,0,0,0,0,0,0,-2.8254,-2.8187,-2.8331,-2.8345,-2.8347,-2.8409,-2.8411,-2.8412,-2.8417,-2.8416,-2.8414,-2.8413,-2.849,-2.8494,-2.8498,-2.8551,0,0,-2.8511,-2.8513,0,0,0,0,0,0,0,0,-2.825,-2.8259,-2.8342,-2.8344,-2.8347,-2.8402,-2.8387,-2.8459,-2.8417,-2.839,-2.8414,-2.8413,-2.8463,-2.8469,-2.8487,-2.8555,-2.8558,-2.8512,-2.8514,-2.8516,-2.8517,0,0,0,0,0,0,0,-2.8245,-2.8256,-2.8362,-2.8343,-2.8346,-2.8347,-2.8355,-2.8401,-2.8433,-2.8393,-2.8393,-2.8403,-2.8464,-2.8483,-2.8489,-2.8559,-2.8512,-2.8515,-2.8518,-2.852,-2.8675,-2.8676,0,0,0,0,0,0,-2.8238,-2.8251,-2.836,-2.8365,-2.8294,-2.835,-2.836,-2.8386,-2.8432,-2.8438,-2.8404,-2.8403,-2.8476,-2.8484,-2.8491,-2.8556,-2.8516,-2.852,-2.8523,-2.8673,-2.8675,-2.8677,0,0,0,0,0,0,-2.8234,-2.8247,-2.8357,-2.8308,-2.8322,-2.8354,-2.8383,-2.8388,-2.8407,-2.8441,-2.8446,-2.8417,-2.8475,-2.8485,-2.8536,-2.8559,-2.8522,-2.8526,-2.8671,-2.8674,-2.8676,-2.8687,0,0,0,0,0,0,-2.823,-2.8246,-2.8267,-2.8309,-2.8325,-2.8401,-2.8385,-2.839,-2.8414,-2.8414,-2.8455,-2.846,-2.8475,-2.853,-2.8541,-2.8564,-2.8529,-2.8669,-2.8672,-2.8675,-2.8685,-2.8689,-2.8693,0,0,0,0,0,-2.8225,-2.8266,-2.8268,-2.8281,-2.8352,-2.8402,-2.8411,-2.8428,-2.8416,-2.8437,-2.8459,-2.8459,-2.8555,-2.8535,-2.8547,-2.8573,-2.8668,-2.8672,-2.8675,-2.8683,-2.8689,-2.8693,0,0,0,0,0,0,-2.8225,-2.8272,-2.8274,-2.8331,-2.8363,-2.8403,-2.843,-2.8434,-2.8469,-2.8466,-2.8485,-2.8494,-2.8545,-2.8564,-2.8541,-2.8627,-2.861,-2.8616,-2.8612,-2.8618,-2.8622,-2.8616,-2.8533,0,0,0,0,0,-2.8232,-2.827,-2.8309,-2.8355,-2.8371,-2.8398,-2.842,-2.843,-2.8464,-2.8477,-2.8503,-2.8534,-2.8572,-2.8596,-2.8632,-2.8688,-2.8697,-2.8711,-2.8716,-2.8719,-2.8724,-2.8755,-2.8762,-2.8688,-2.8688,-2.8688,0,0,-2.8246,-2.8276,-2.8299,-2.8355,-2.8381,-2.842,-2.8409,-2.845,-2.8478,-2.8483,-2.8533,-2.8553,-2.859,-2.8643,-2.8668,-2.8661,-2.8746,-2.8723,-2.8726,-2.8729,-2.8759,-2.8766,-2.8772,-2.869,-2.869,-2.8689,0,0,-2.8291,-2.8318,-2.836,-2.8386,-2.8426,-2.8444,-2.8454,-2.8494,-2.8508,-2.8559,-2.8563,-2.8597,-2.8661,-2.8687,-2.8709,-2.8765,-2.8766,-2.8776,-2.8798,-2.8828,-2.8834,-2.8839,-2.8859,-2.8866,-2.8781,-2.8781,-2.8781,0,-2.8304,-2.8362,-2.838,-2.8422,-2.8446,-2.8453,-2.8495,-2.852,-2.8569,-2.8585,-2.8577,-2.8658,-2.8683,-2.8743,-2.8756,-2.8774,-2.8785,-2.8771,-2.8832,-2.8837,-2.8842,-2.8861,-2.8869,-2.8782,-2.8781,-2.8781,-2.8781,0,-2.8375,-2.8416,-2.8444,-2.8493,-2.852,-2.8562,-2.8585,-2.8611,-2.8619,-2.8638,-2.8689,-2.872,-2.8763,-2.8778,-2.8785,-2.8839,-2.8833,-2.8828,-2.8812,-2.885,-2.8868,-2.8876,-2.8783,-2.8783,-2.8782,-2.8782,0,0,-2.8422,-2.8481,-2.8491,-2.8513,-2.8558,-2.8589,-2.8631,-2.8673,-2.8695,-2.8729,-2.8764,-2.8818,-2.8814,-2.8838,-2.8849,-2.8875,-2.8918,-2.8867,-2.8868,-2.8875,-2.8978,-2.8982,-2.899,-2.8919,-2.8921,-2.8922,-2.8975,0,-2.8472,-2.8547,-2.8565,-2.8628,-2.8666,-2.8674,-2.871,-2.8741,-2.8759,-2.8793,-2.8814,-2.8852,-2.8844,-2.8858,-2.8885,-2.8907,-2.8939,-2.8903,-2.8951,-2.8952,-2.8941,-2.8999,-2.9003,-2.9052,-2.8982,-2.8984,-2.8985,0,-2.854,-2.8577,-2.8644,-2.8685,-2.8701,-2.8733,-2.8774,-2.8807,-2.8842,-2.8854,-2.8881,-2.889,-2.8933,-2.8915,-2.8974,-2.895,-2.897,-2.8984,-2.8986,-2.8991,-2.897,-2.9005,-2.9068,-2.9075,-2.8996,-2.8995,-2.8994,0,-2.8567,-2.8633,-2.8682,-2.8701,-2.8749,-2.8772,-2.8793,-2.8827,-2.8852,-2.8887,-2.8903,-2.8943,-2.8964,-2.8995,-2.9013,-2.8999,-2.9071,-2.9055,-2.9081,-2.9081,-2.9096,-2.9094,-2.9162,-2.911,-2.9109,-2.9109,-2.9109,0,-2.8621,-2.8662,-2.8695,-2.8725,-2.8771,-2.8791,-2.8836,-2.8857,-2.8888,-2.8922,-2.8931,-2.8962,-2.8985,-2.902,-2.9035,-2.9081,-2.9091,-2.9101,-2.9105,-2.91,-2.9099,-2.9113,-2.911,-2.9111,-2.9111,-2.911,-2.911,0,-2.8659,-2.8683,-2.8737,-2.8778,-2.879,-2.8822,-2.8857,-2.8887,-2.8906,-2.8949,-2.896,-2.899,-2.9031,-2.9053,-2.9104,-2.9114,-2.9166,-2.9168,-2.9155,-2.9156,-2.9181,-2.9178,-2.9261,-2.9272,-2.9212,-2.9213,-2.9213,0,-2.8691,-2.8723,-2.8768,-2.8792,-2.8814,-2.8852,-2.8878,-2.8899,-2.8925,-2.8968,-2.8992,-2.9034,-2.9069,-2.9134,-2.916,-2.9199,-2.9201,-2.9228,-2.9207,-2.9202,-2.9202,-2.9199,-2.9203,-2.9231,-2.9231,-2.9232,-2.9232,0,-2.8746,-2.8757,-2.8794,-2.8835,-2.8865,-2.8899,-2.8932,-2.895,-2.8977,-2.9005,-2.9048,-2.9075,-2.9128,-2.917,-2.9211,-2.9232,-2.9237,-2.9239,-2.9247,-2.9242,-2.9233,-2.9238,-2.9164,-2.9236,-2.9236,-2.9236,-2.9235,-2.9235,-2.8782,-2.8811,-2.8848,-2.8888,-2.8916,-2.8946,-2.8976,-2.8999,-2.9036,-2.9081,-2.9091,-2.9136,-2.9171,-2.9227,-2.925,-2.9285,-2.9279,-2.9291,-2.9294,-2.9297,-2.9298,-2.9228,-2.9292,-2.9292,-2.9292,-2.9292,-2.9292,0,-2.8837,-2.8862,-2.8899,-2.8945,-2.8977,-2.898,-2.9017,-2.9043,-2.9083,-2.9115,-2.915,-2.9199,-2.9239,-2.9269,-2.931,-2.9332,-2.9335,-2.9342,-2.9341,-2.9345,-2.93,-2.9289,-2.9339,-2.9339,-2.9339,-2.9339,-2.9339,-2.9339,-2.887,-2.8919,-2.8934,-2.8996,-2.902,-2.9065,-2.9086,-2.9114,-2.914,-2.9195,-2.9229,-2.9248,-2.9279,-2.9323,-2.936,-2.9367,-2.9382,-2.9389,-2.9396,-2.9354,-2.9349,-2.9344,-2.9333,-2.9392,-2.9392,-2.9439,-2.9439,-2.9439]}]]